#timestamp,LO_Frequency,Hit,StdDev 
1457100015.8,286046995.5,N
1457100035.7,286046996.6,N
1457100055.5,286046999.3,N
1457100075.3,286046995.1,N
1457100095.2,286046997.7,N
1457100115.0,286046998.9,N
1457100115.9,286046998.9,N
1457100135.7,286047002.6,N
1457100155.6,286047003.9,N
1457100175.4,286047004.2,N
1457100195.2,286047001.8,N
1457100215.1,286047003.6,N
1457100216.0,286047003.6,N
1457100235.8,286047001.5,N
1457100255.6,286047003.5,N
1457100275.5,286047000.3,N
1457100295.3,286046999.2,N
1457100315.1,286047002.4,N
1457100335.9,286047000.2,N
1457100355.7,286047002.3,N
1457100375.5,286047000.9,N
1457100395.3,286047001.0,N
1457100415.2,286046996.8,N
1457100435.0,286046998.8,N
1457100435.9,286046998.8,N
1457100455.7,286047002.6,N
1457100475.6,286046999.0,N
1457100495.4,286046997.5,N
1457100515.2,286047002.2,N
1457100535.1,286047002.3,N
1457100536.0,286047002.3,N
1457100555.8,286046998.7,N
1457100575.6,286046996.5,N
1457100595.5,286047000.6,N
1457100615.3,286047002.8,N
1457100635.1,286046999.8,N
1457100655.9,286047003.8,N
1457100675.7,286047003.2,N
1457100695.5,286047002.0,N
1457100715.4,286047003.0,N
1457100735.2,286047003.9,N
1457100755.0,286047000.4,N
1457100755.9,286047000.4,N
1457100775.7,286047000.3,N
1457100795.6,286046998.4,N
1457100815.4,286047001.6,N
1457100835.2,286047007.0,Y
1457100855.1,286047008.5,P
1457100856.0,286047008.5,N
1457100875.8,286047008.4,N
1457100895.6,286047007.3,N
1457100915.5,286047006.6,N
1457100935.3,286047008.9,Y
1457100955.1,286047005.2,P
1457100975.9,286047003.6,P
1457100995.7,286047001.6,N
1457101015.5,286047000.5,N
1457101035.4,286047001.8,N
1457101055.2,286047004.4,N
1457101075.0,286047002.3,N
1457101075.9,286047002.3,N
1457101095.8,286047002.2,N
1457101115.6,286047000.3,N
1457101135.4,286046999.0,N
1457101155.3,286046999.5,N
1457101175.1,286046993.3,Y
1457101176.0,286046993.3,P
1457101195.8,286046988.6,N
1457101215.7,286046990.1,N
1457101235.5,286046990.8,N
1457101255.3,286046991.1,N
1457101275.2,286046992.2,N
1457101295.9,286046994.4,N
1457101315.7,286046992.5,N
1457101335.5,286046991.1,N
1457101355.4,286046990.9,N
1457101375.2,286046992.9,N
1457101395.0,286046990.7,N
1457101395.9,286046990.7,N
1457101415.8,286046989.7,Y
1457101435.6,286046995.6,P
1457101455.4,286046993.8,P
1457101475.3,286046997.1,N
1457101495.1,286047000.2,N
1457101515.8,286047000.9,N
1457101535.7,286047001.5,N
1457101555.5,286047004.2,N
1457101575.3,286047004.8,N
1457101595.2,286047008.5,N
1457101615.9,286047006.5,N
1457101635.7,286047004.9,N
1457101655.6,286047004.7,N
1457101675.4,286047009.1,N
1457101695.2,286047008.5,N
1457101715.1,286047008.1,N
1457101716.0,286047008.1,N
1457101735.8,286047009.9,N
1457101755.6,286047009.6,N
1457101775.4,286047010.9,N
1457101795.3,286047012.1,N
1457101815.1,286047010.0,N
1457101835.8,286047011.4,N
1457101855.7,286047013.7,N
1457101875.5,286047014.2,N
1457101895.3,286047015.2,N
1457101915.2,286047007.4,N
1457101935.9,286047004.6,N
1457101955.7,286047005.2,N
1457101975.6,286047007.6,N
1457101995.4,286047006.7,N
1457102015.2,286047005.3,N
1457102035.1,286047004.2,N
1457102036.0,286047004.2,N
1457102055.8,286047007.1,N
1457102075.6,286047004.9,N
1457102095.4,286047004.8,N
1457102115.3,286047006.0,N
1457102135.1,286047001.5,N
1457102155.8,286047000.1,N
1457102175.7,286047000.5,N
1457102195.5,286046997.0,N
1457102215.3,286046997.9,N
1457102235.2,286046998.9,N
1457102255.9,286046998.0,N
1457102275.7,286046995.7,N
1457102295.6,286046996.3,N
1457102315.4,286046992.2,N
1457102335.2,286046992.4,N
1457102355.1,286046987.0,N
1457102356.0,286046987.0,N
1457102375.8,286046985.7,N
1457102395.6,286046991.0,N
1457102415.5,286046990.5,N
1457102435.3,286046986.9,N
1457102455.1,286046985.5,N
1457102475.8,286046986.8,N
1457102495.7,286046984.2,N
1457102515.5,286046984.5,N
1457102535.3,286046979.2,N
1457102555.2,286046974.3,Y
1457102575.0,286046974.5,P
1457102575.9,286046974.5,N
1457102595.7,286046976.8,N
1457102615.6,286046972.8,Y
1457102635.4,286046994.1,P
1457102655.2,286046988.6,N
1457102675.1,286046989.4,N
1457102676.0,286046989.4,N
1457102695.8,286046987.3,N
1457102715.6,286046988.8,N
1457102735.5,286046985.2,Y
1457102755.3,286046993.7,P
1457102775.1,286046994.7,N
1457102795.9,286046988.6,P
1457102815.7,286046986.3,Y
1457102835.5,286046989.0,P
1457102855.4,286046990.7,P
1457102875.2,286046989.6,P
1457102895.0,286046993.1,Y
1457102896.0,286046993.1,P
1457102915.8,286047002.5,N
1457102935.6,286046995.0,N
1457102955.4,286046994.6,N
1457102975.3,286046992.7,N
1457102995.1,286046985.8,Y
1457103015.8,286046989.4,P
1457103035.7,286046990.8,P
1457103055.5,286046990.3,P
1457103075.3,286046990.4,Y
1457103095.2,286046999.6,P
1457103115.0,286046999.3,N
1457103115.9,286046999.3,N
1457103135.7,286046997.0,N
1457103155.6,286046996.4,N
1457103175.4,286046994.3,N
1457103195.2,286046990.6,Y
1457103215.1,286046994.7,P
1457103216.0,286046994.7,P
1457103235.8,286046994.1,P
1457103255.6,286046994.4,Y
1457103275.5,286046999.6,P
1457103295.3,286046999.1,N
1457103315.1,286046998.3,N
1457103335.9,286047001.1,N
1457103355.7,286046998.8,N
1457103375.5,286047001.1,N
1457103395.4,286047002.8,N
1457103415.2,286046999.8,N
1457103435.0,286047001.4,N
1457103435.9,286047001.4,N
1457103455.8,286047004.7,N
1457103475.6,286047006.5,N
1457103495.4,286047006.8,N
1457103515.3,286047008.7,N
1457103535.1,286047015.2,Y
1457103536.0,286047015.2,P
1457103555.8,286047014.9,N
1457103575.7,286047009.3,N
1457103595.5,286047017.2,Y
